Find Kosmos-2300

NORAD ID: 23442 Int'l Des: 1994-086 Owner: VKS Country: RU operational
LEOCIRCULARPOLAR

Live Position

Loading 3D Globe...

About Kosmos-2300

Description loading...

Upcoming Passes

Passes for default location (London). Set your location on the main map for personalized predictions.

Altitude History

Loading altitude history...

Two-Line Element Set

1 23442U 94086B 26106.09553036 .00000041 00000-0 16917-3 0 9990
2 23442 82.5660 343.5028 0003005 36.6983 117.8614 12.62805024442752
Epoch: Apr 16, 2026 • Age: 12 hours

Current Status

Altitude 1423.2 km
Velocity 7.15 km/s
Sub-Earth Point -33.94°S, 85.7°W
Launch Date Dec 26, 1994
Age 31.3 years
Type other

Technical Details

Classification Payload
Mass 225.00 kg
Dry Mass 225.00 kg
Total Mass 225.00 kg
Length 1.60 m
Diameter 0.80 m
Span 7.00 m
Shape Cyl + Ant
Manufacturer NPOPMR
Bus Type Strela-3
Phase Status In Orbit
Owner/State VKS/RU

Most Searched